Regional Weather Roundup
Issued by NWS Wakefield, VA

Home | Current Version | Previous Version | Graphics & Text | Print | Product List | Glossary On
Versions: 1 2 3 4 5 6 7 8 9 10 11 12 13 14 15 16 17 18 19 20 21 22 23 24 25 26 27
000
ASUS41 KAKQ 042316
RWRAKQ

REGIONAL WEATHER ROUNDUP
NATIONAL WEATHER SERVICE WAKEFIELD VA
600 PM EST SUN DEC 04 2016

Note: "fair" indicates few or no clouds below 12,000 feet with no
significant weather and/or obstructions to visibility. * = Denotes
station may not report precipitation (e.g., rain,snow,etc.),
thunder or fog.

VAZ042-051-052>054-056-050000-
NORTHERN VIRGINIA

CITY           SKY/WX    TMP DP  RH WIND       PRES   REMARKS
WASH NATIONAL  CLOUDY    45  31  58 S6        30.19F
DULLES         CLOUDY    42  27  55 S5        30.18S
FORT BELVOIR   CLOUDY    42  30  63 CALM      30.18F
QUANTICO       CLOUDY    45  31  58 S8        30.20F
FREDERICKSBRG* CLOUDY    44  33  66 S6        30.19S
STAFFORD*      CLOUDY    42  32  69 S3        30.22F
WARRENTON      CLOUDY    42  27  55 CALM      30.16F
CULPEPER*      CLOUDY    43  31  63 CALM      30.18F
MANASSAS*      CLOUDY    41  30  65 VRB5      30.17F
LEESBURG*      CLOUDY    43  32  65 MISG      30.18S
WINCHESTER     CLOUDY    37  28  70 CALM      30.13F
FRONT ROYAL*   FAIR      39  30  70 CALM      30.12F
LURAY*         CLOUDY    39  34  81 CALM      30.12F
$$

VAZ048-049-060>072-079>083-050000-
CENTRAL AND SOUTH CENTRAL VIRGINIA

CITY           SKY/WX    TMP DP  RH WIND       PRES   REMARKS
RICHMOND       LGT RAIN  42  32  67 SE3       30.21R
CHESTERFIELD*  CLOUDY    43  21  42 CALM      30.22R
PETERSBURG*    CLOUDY    41  33  74 CALM      30.21S
HANOVER        CLOUDY    41  33  73 CALM      30.22S
TAPPAHANNOCK*  CLOUDY    42  31  65 CALM      30.21S
QUINTON*       CLOUDY    42  32  67 CALM      30.21S
CHARLOTTSVILLE CLOUDY    43  29  57 S7        30.16F
GORDONSVILLE*  CLOUDY    41  31  65 S3        30.16F
ORANGE*          N/A     43  32  65 CALM      30.19F
LOUISA*        CLOUDY    45  34  65 CALM      30.17F
BUMPASS*       CLOUDY    41  32  70 CALM      30.18F
FARMVILLE*     LGT RAIN  41  39  95 CALM      30.18F
CREWE*         CLOUDY    40  40 100 CALM      30.18F
FORT PICKETT*  CLOUDY    40  34  77 CALM      30.18F
CHASE CITY*    CLOUDY    40  39  95 CALM      30.19R
CLARKSVILLE*   CLOUDY    41  41 100 CALM      30.19S
SOUTH HILL*    CLOUDY    41  37  86 CALM      30.24F
LAWRENCEVILLE* CLOUDY    42  36  79 CALM      30.19F
EMPORIA*       CLOUDY    43  37  81 CALM      30.21F
$$

VAZ088>098-050000-
SOUTHEAST VIRGINIA

CITY           SKY/WX    TMP DP  RH WIND       PRES   REMARKS
NORFOLK        CLOUDY    46  36  68 E3        30.20S
VIRGINIA BEACH CLOUDY    45  36  70 CALM      30.20S
NORFOLK NAVAL  CLOUDY    44  37  76 CALM      30.21F
WEST POINT*    CLOUDY    41  35  79 CALM      30.23F
SALUDA*        CLOUDY    41  38  87 CALM      30.21S
NEWPORT NEWS   CLOUDY    44  35  70 CALM      30.21S
LANGLEY AFB    CLOUDY    45  35  67 CALM      30.20S
FORT EUSTIS    CLOUDY    44  34  68 CALM      30.18S
WILLIAMSBURG*  CLOUDY    45  36  70 CALM      30.21F
HR EXEC AP*    MOCLDY    41  36  81 CALM      30.19F
FRANKLIN*      CLOUDY    43  37  78 CALM      30.21F
US460-WAKEFLD  CLOUDY    42  37  82 CALM      30.21F
$$

VAZ020-022-025-037-045-050000-
WEST CENTRAL AND SOUTHWEST VIRGINIA

CITY           SKY/WX    TMP DP  RH WIND       PRES   REMARKS
STAUNTON*      CLOUDY    39  28  66 S7        30.14F
WAYNESBORO*    CLOUDY    38  28  67 S5        30.12F
HOT SPRINGS VA MIX PCPN  28  28 100 S10       30.00F VSB<1/4 WCI  19
LYNCHBURG      LGT RAIN  37  35  92 CALM      30.18S
DANVILLE       LGT RAIN  40  40 100 CALM      30.18S
SOUTH BOSTON*  CLOUDY    40  39  95 CALM      30.19S
MARTINSVILLE   RAIN      37  36  95 CALM      30.17F
ROANOKE        LGT RAIN  37  35  92 SE8       30.16F
BLACKSBURG     MIX PCPN  34  34  99 E5        30.12F
DUBLIN*        MIX PCPN  37  36  98 CALM      30.10S
MARION*        LGT RAIN  40  38  94 NE10      30.06S
HILLSVILLE*    MIX PCPN  33  33 100 S3        30.05F
RICHLANDS*     LGT RAIN  42  41  97 SE8       29.95S
WISE*          CLOUDY    43  43 100 S12       29.95F
ABINGDON*      RAIN      45  44  98 E9        29.99S
$$

MDZ021>025-VAZ099-100-050000-
SOUTHERN MARYLAND AND THE DELMARVA PENINSULA

CITY           SKY/WX    TMP DP  RH WIND       PRES   REMARKS
PATUXENT RIVER CLOUDY    43  32  65 S3        30.20F
BAY BRIDGE APT CLOUDY    43  32  65 SE5       30.20S
LEONARDTOWN    CLOUDY    41  32  70 CALM      30.21F
DOVER          CLOUDY    41  33  73 SE5       30.18F
GEORGETOWN     CLOUDY    42  33  70 CALM      30.21S
EASTON         CLOUDY    43  30  61 CALM      30.24F
CAMBRIDGE      MOCLDY    37  32  81 CALM      30.20F
SALISBURY      CLOUDY    41  35  79 CALM      30.21S
OCEAN CITY     CLOUDY    42  34  73 CALM      30.21F
WALLOPS ISLAND CLOUDY    42  35  76 CALM      30.22F
ACCOMACK*      CLOUDY    42  37  82 CALM      30.22S
$$

NCZ012>017-030>032-050000-
NORTH CENTRAL AND EASTERN NORTH CAROLINA

CITY           SKY/WX    TMP DP  RH WIND       PRES   REMARKS
ROANOKE RAPIDS DRIZZLE   43  39  87 CALM      30.20F
RALEIGH        LGT RAIN  43  40  89 SE3       30.19F FOG
ELIZABETH CITY CLOUDY    47  36  65 E3        30.21S
AHOSKIE*       CLOUDY    44  37  78 CALM      30.21F
EDENTON*       CLOUDY    47  41  78 CALM      30.21S
CURRITUCK*     CLOUDY    46  38  75 CALM      30.21S
KILL DEVIL HLS CLOUDY    47  40  76 CALM      30.19F
MANTEO         CLOUDY    47  38  72 NE3       30.21S
CAPE HATTERAS  MOCLDY    49  40  71 NE3       30.20F
TARBORO*       NOT AVBL
GOLDSBORO      LGT RAIN  45  45  99 CALM      30.18F FOG
WASHINGTON     CLOUDY    47  39  74 CALM      30.21S
GREENVILLE     NOT AVBL
NEW BERN       LGT RAIN  48  41  76 NE6       30.20F
WILMINGTON     CLOUDY    45  43  93 E8        30.16F
$$

VAZ048-050000-
ELSEWHERE

CITY           SKY/WX    TMP DP  RH WIND       PRES   REMARKS
HARRISBURG PA  MOCLDY    43  31  62 S5        30.16S
BALTIMORE      CLOUDY    43  30  60 S3        30.19S
ANNAPOLIS      CLOUDY    46  32  58 SE9       30.19F
ANDREWS AFB    CLOUDY    42  30  63 S3        30.17F
PHILADELPHIA   MOCLDY    44  26  49 S3        30.19F
HENDERSON NC   RAIN      39  35  83 CALM      30.19S
GREENSBORO     LGT RAIN  41  40  96 S5        30.14F FOG
ROCKY MOUNT    LGT RAIN  45  41  86 CALM      30.20F
$$

VAZ100-050000-
MARINE

STATION/POSITION TIME  TEMP    WIND        PRES    WAVE   SWELL
                       AIR SEA DIR/SP/G            HT/PER HT/PER
                 (UTC) (F)     (DEG/KT/KT) (MB)    (FT/S) (FT/S)
BRANDYWINE LGT   2236   45     320/  1/  3   N/A
CAPE MAY NJ      2242   45 48  280/  4/  4 1022.6R
LEWES DE         2236   43 48  160/  2/  2 1023.0S
OCEAN-CITY-INLET 2236   46 51  290/  2/  3 1023.5F
WACHAPREAGUE VA  2236   43 47   CALM  /  1 1023.2S
THOMAS POINT MD  2300   45 49  160/  8/ 10   N/A
GOOSES REEF MD   2300   45 49  150/  6/  8 1023.2    0
COVE POINT MD    2236   44     190/  6/  7 1023.3F
SOLOMONS ISLAND  2236   44 51  170/  4/  5   N/A
BISHOPS HEAD MD  2236   44 45  180/  4/  5 1023.1F
PINEY POINT MD   2236          180/  5/  6   N/A
POTOMAC MD       2300   45 51  160/  6/  8 1021.8    0
CAMBRIDGE MD     2236   44 47  140/  1/  2 1022.1F
LEWISETTA VA     2236   44 48  170/  4/  5 1022.5F
RAPPAHANNOCK LGT 2236          100/  3/  4 1023.7R
STINGRAY PT      2250   45     160/  4/  6 1023.5R
YORK RVR RNG VA  2236   46     150/  2/  4 1022.6R
YORKTOWN VA      2236   45 52  130/  2/  3 1022.7R
JAMESTOWN VA     2300   45 52  160/  4/  6   N/A     0
DOMINION TERM VA 2236   46     130/  3/  4 1022.9R
KIPTOPEKE VA     2236      51   90/  2/  3   N/A
CHES BAY BRIDGE  2236   46 54  170/  2/  5 1022.8R
CAPE HENRY VA    2236   45     130/  3/  3   N/A
WILLOUBY STN VA  2236   46     150/  3/  4 1023.8R
S CRANEY ISL VA  2236   46     100/  3/  4 1022.7R
CAPE HENRY BUOY  2242      56                N/A     2/ 6
1ST LANDING BUOY 2300   46 53              1022.9    1/ 4
CAPE CHARLES BUO 2256      55                N/A     2/ 6
OFFSHORE WE BUOY 2251      56                N/A     3/ 6
64NM E OF VA BCH 2250   49 60   20/  6/ 10 1022.8F   4/ 6   3/ 6
DUCK PIER NC     2236   48 55   30/  5/  8 1022.3F
44100 DUCK FRF   2235      56                N/A     3/ 7
OREGON INLET NC  2236   49 54   50/  4/  6 1022.4F
HATTERAS NC      2236   50 58   40/  5/  8 1022.3F
DIAMOND SHLS NC  2250   55 75   40/  8/ 12 1022.7F   4/ 9   3/ 9
CAPE LOOKOUT NC  2300   52      40/ 13/ 16 1021.8F
$$




USA.gov is the U.S. government's official web portal to all federal, state and local government web resources and services.